Weather History for Sturgis, MI

Change the Weather History Date:

Thursday, February 9, 2012

  Actual Average (KHAI) Record (KHAI)
Temperature  
Mean Temperature 26 °F -  
Max Temperature 33 °F 32 °F 58 °F (1990)
Min Temperature 19 °F 12 °F -18 °F (1979)
Degree Days  
Heating Degree Days 39    
Moisture  
Dew Point 19 °F    
Average Humidity 75    
Maximum Humidity 93    
Minimum Humidity 52    
Precipitation  
Precipitation 0.00 in - - ()
Sea Level Pressure  
Sea Level Pressure 30.20 in    
Wind  
Wind Speed 9 mph (WSW)    
Max Wind Speed 16 mph    
Max Gust Speed 22 mph    
Visibility 10 miles    
Events      
Averages and records for this station are not official NWS values.
T = Trace of Precipitation, MM = Missing Value Source: NWS Daily Summary

Daily Weather History Graph

Daily Weather History Graph

Search for Another Location

Airport:

Trip Planner

Search our weather history database for the weather conditions in past years. The results will help you decide how hot, cold, wet, or windy it might be!

Date:

Astronomy

Feb. 09, 2012 Rise Set
Actual Time 7:45 AM EST 6:06 PM EST
Civil Twilight 7:16 AM EST 6:35 PM EST
Nautical Twilight 6:43 AM EST 7:08 PM EST
Astronomical Twilight 6:11 AM EST 7:41 PM EST
Moon 8:37 PM EST (2/9) 8:18 AM EST (2/9)
Length of Visible Light 11h 18m
Length of Day
10h 21m
Waning Gibbous, 96% of the Moon is Illuminated
Feb 9
Waning Gibbous
Feb 14
Last Quarter
Feb 21
New
Feb 29
First Quarter
Mar 8
Full

Hourly Weather History & Observations

Time (EST) Temp. Windchill Dew Point Humidity Pressure Visibility Wind Dir Wind Speed Gust Speed Precip Events Conditions
12:14 AM 24.8 °F 16.9 °F 19.4 °F 80% 30.24 in 10.0 mi WSW 6.9 mph - N/A   Clear
12:55 AM 24.8 °F 17.9 °F 19.4 °F 80% 30.24 in 10.0 mi West 5.8 mph - N/A   Clear
1:15 AM 24.8 °F 16.9 °F 19.4 °F 80% 30.24 in 10.0 mi West 6.9 mph - N/A   Clear
1:35 AM 24.8 °F 16.9 °F 19.4 °F 80% 30.24 in 10.0 mi WSW 6.9 mph - N/A   Clear
1:55 AM 24.8 °F 16.1 °F 19.4 °F 80% 30.24 in 10.0 mi West 8.1 mph - N/A   Clear
2:14 AM 24.8 °F 16.1 °F 19.4 °F 80% 30.24 in 10.0 mi West 8.1 mph - N/A   Clear
2:35 AM 24.8 °F 16.1 °F 19.4 °F 80% 30.24 in 10.0 mi West 8.1 mph - N/A   Clear
2:55 AM 24.8 °F 16.9 °F 19.4 °F 80% 30.23 in 10.0 mi WSW 6.9 mph - N/A   Clear
3:14 AM 24.8 °F 16.9 °F 19.4 °F 80% 30.23 in 10.0 mi WSW 6.9 mph - N/A   Clear
3:35 AM 23.0 °F 15.8 °F 19.4 °F 86% 30.22 in 10.0 mi WSW 5.8 mph - N/A   Clear
3:54 AM 19.4 °F 11.5 °F 17.6 °F 93% 30.22 in 10.0 mi SW 5.8 mph - N/A   Clear
4:15 AM 21.2 °F 13.6 °F 19.4 °F 93% 30.23 in 10.0 mi SW 5.8 mph - N/A   Clear
4:35 AM 21.2 °F 13.6 °F 17.6 °F 86% 30.22 in 10.0 mi WSW 5.8 mph - N/A   Clear
4:54 AM 21.2 °F 12.6 °F 19.4 °F 93% 30.22 in 10.0 mi WSW 6.9 mph - N/A   Clear
5:15 AM 21.2 °F 13.6 °F 19.4 °F 93% 30.23 in 10.0 mi WSW 5.8 mph - N/A   Clear
5:35 AM 21.2 °F 12.6 °F 17.6 °F 86% 30.22 in 10.0 mi WSW 6.9 mph - N/A   Clear
5:54 AM 21.2 °F 13.6 °F 17.6 °F 86% 30.22 in 10.0 mi WSW 5.8 mph - N/A   Clear
6:15 AM 21.2 °F 13.6 °F 17.6 °F 86% 30.22 in 10.0 mi WSW 5.8 mph - N/A   Clear
6:34 AM 19.4 °F 12.8 °F 17.6 °F 93% 30.22 in 10.0 mi West 4.6 mph - N/A   Clear
6:54 AM 19.4 °F 11.5 °F 17.6 °F 93% 30.22 in 10.0 mi WSW 5.8 mph - N/A   Clear
7:15 AM 19.4 °F 11.5 °F 17.6 °F 93% 30.23 in 7.0 mi WSW 5.8 mph - N/A   Clear
7:35 AM 19.4 °F 11.5 °F 17.6 °F 93% 30.23 in 7.0 mi WSW 5.8 mph - N/A   Clear
7:55 AM 19.4 °F 11.5 °F 17.6 °F 93% 30.23 in 7.0 mi SW 5.8 mph - N/A   Clear
8:14 AM 19.4 °F 11.5 °F 17.6 °F 93% 30.23 in 7.0 mi WSW 5.8 mph - N/A   Clear
8:34 AM 21.2 °F 12.6 °F 19.4 °F 93% 30.23 in 7.0 mi SW 6.9 mph - N/A   Clear
8:55 AM 21.2 °F 11.7 °F 19.4 °F 93% 30.23 in 7.0 mi WSW 8.1 mph - N/A   Clear
9:15 AM 24.8 °F 15.3 °F 21.2 °F 86% 30.24 in 7.0 mi WSW 9.2 mph - N/A   Clear
9:35 AM 24.8 °F 14.6 °F 21.2 °F 86% 30.23 in 7.0 mi WSW 10.4 mph - N/A   Clear
9:55 AM 24.8 °F 14.6 °F 21.2 °F 86% 30.23 in 10.0 mi WSW 10.4 mph - N/A   Clear
10:14 AM 26.6 °F 15.2 °F 21.2 °F 80% 30.24 in 10.0 mi WSW 13.8 mph - N/A   Clear
10:35 AM 26.6 °F 16.2 °F 21.2 °F 80% 30.24 in 10.0 mi WSW 11.5 mph 16.1 mph N/A   Clear
10:55 AM 28.4 °F 17.5 °F 23.0 °F 80% 30.23 in 10.0 mi SW 13.8 mph - N/A   Scattered Clouds
11:14 AM 28.4 °F 17.0 °F 21.2 °F 74% 30.24 in 10.0 mi WSW 15.0 mph - N/A   Scattered Clouds
11:35 AM 28.4 °F 17.5 °F 19.4 °F 69% 30.24 in 10.0 mi WSW 13.8 mph 18.4 mph N/A   Clear
11:55 AM 30.2 °F 20.2 °F 19.4 °F 64% 30.23 in 10.0 mi WSW 12.7 mph 17.3 mph N/A   Clear
12:14 PM 30.2 °F 20.2 °F 17.6 °F 60% 30.22 in 10.0 mi WSW 12.7 mph 19.6 mph N/A   Clear
12:35 PM 32.0 °F 23.0 °F 17.6 °F 55% 30.21 in 10.0 mi SW 11.5 mph - N/A   Clear
12:54 PM 33.8 °F 25.8 °F 17.6 °F 52% 30.20 in 10.0 mi West 10.4 mph - N/A   Clear
1:15 PM 33.8 °F 24.3 °F 17.6 °F 52% 30.19 in 10.0 mi WSW 13.8 mph - N/A   Clear
1:35 PM 33.8 °F 23.9 °F 17.6 °F 52% 30.18 in 10.0 mi WSW 15.0 mph 19.6 mph N/A   Clear
1:55 PM 33.8 °F 23.9 °F 17.6 °F 52% 30.17 in 10.0 mi SW 15.0 mph 21.9 mph N/A   Clear
2:14 PM 33.8 °F 23.9 °F 17.6 °F 52% 30.17 in 10.0 mi WSW 15.0 mph 18.4 mph N/A   Clear
2:35 PM 33.8 °F 23.5 °F 17.6 °F 52% 30.15 in 10.0 mi WSW 16.1 mph 20.7 mph N/A   Clear
2:54 PM 33.8 °F 25.3 °F 17.6 °F 52% 30.15 in 10.0 mi WSW 11.5 mph - N/A   Clear
3:15 PM 33.8 °F 24.3 °F 19.4 °F 56% 30.15 in 10.0 mi SW 13.8 mph - N/A   Clear
3:35 PM 33.8 °F 23.9 °F 19.4 °F 56% 30.14 in 10.0 mi SW 15.0 mph 19.6 mph N/A   Clear
3:54 PM 33.8 °F 24.3 °F 19.4 °F 56% 30.14 in 10.0 mi SW 13.8 mph 18.4 mph N/A   Clear
4:15 PM 33.8 °F 23.5 °F 19.4 °F 56% 30.14 in 10.0 mi SW 16.1 mph - N/A   Clear
4:34 PM 32.0 °F 21.6 °F 19.4 °F 60% 30.13 in 10.0 mi SW 15.0 mph - N/A   Clear
4:55 PM 32.0 °F 21.6 °F 19.4 °F 60% 30.13 in 10.0 mi SW 15.0 mph 20.7 mph N/A   Clear
5:14 PM 30.2 °F 18.9 °F 19.4 °F 64% 30.13 in 10.0 mi SW 16.1 mph - N/A   Clear
5:35 PM 30.2 °F 19.3 °F 19.4 °F 64% 30.13 in 10.0 mi SW 15.0 mph - N/A   Clear
5:55 PM 28.4 °F 17.5 °F 19.4 °F 69% 30.12 in 10.0 mi SW 13.8 mph - N/A   Clear
6:14 PM 28.4 °F 18.5 °F 19.4 °F 69% 30.12 in 10.0 mi SW 11.5 mph - N/A   Clear
6:35 PM 28.4 °F 18.5 °F 19.4 °F 69% 30.12 in 10.0 mi SW 11.5 mph - N/A   Clear
6:55 PM 28.4 °F 18.0 °F 19.4 °F 69% 30.12 in 10.0 mi SW 12.7 mph - N/A   Clear
7:14 PM 26.6 °F 17.5 °F 19.4 °F 74% 30.12 in 10.0 mi SW 9.2 mph - N/A   Clear
7:35 PM 26.6 °F 16.2 °F 19.4 °F 74% 30.12 in 10.0 mi SW 11.5 mph - N/A   Clear
7:55 PM 26.6 °F 16.8 °F 19.4 °F 74% 30.12 in 10.0 mi SW 10.4 mph - N/A   Clear
8:15 PM 26.6 °F 18.2 °F 19.4 °F 74% 30.12 in 10.0 mi SW 8.1 mph - N/A   Clear
8:35 PM 24.8 °F 16.1 °F 21.2 °F 86% 30.12 in 10.0 mi SW 8.1 mph - N/A   Clear
8:54 PM 24.8 °F 16.1 °F 21.2 °F 86% 30.12 in 10.0 mi SW 8.1 mph - N/A   Clear
9:15 PM 24.8 °F 15.3 °F 21.2 °F 86% 30.12 in 10.0 mi SW 9.2 mph - N/A   Clear
9:35 PM 24.8 °F 15.3 °F 21.2 °F 86% 30.11 in 10.0 mi SW 9.2 mph - N/A   Clear
9:54 PM 24.8 °F 16.1 °F 21.2 °F 86% 30.11 in 10.0 mi SSW 8.1 mph - N/A   Clear
10:15 PM 24.8 °F 16.1 °F 19.4 °F 80% 30.11 in 10.0 mi SSW 8.1 mph - N/A   Clear
10:34 PM 24.8 °F 16.1 °F 19.4 °F 80% 30.11 in 10.0 mi SW 8.1 mph - N/A   Clear
10:55 PM 24.8 °F 16.1 °F 19.4 °F 80% 30.10 in 10.0 mi SW 8.1 mph - N/A   Clear
11:15 PM 24.8 °F 16.1 °F 21.2 °F 86% 30.10 in 10.0 mi SW 8.1 mph - N/A   Mostly Cloudy
11:34 PM 26.6 °F 17.5 °F 21.2 °F 80% 30.10 in 10.0 mi SW 9.2 mph - N/A   Overcast
11:55 PM 26.6 °F 16.8 °F 21.2 °F 80% 30.09 in 10.0 mi SW 10.4 mph - N/A   Overcast